1547769600.83,4896,0.0,0.0,-8.63,-10.57,-10.45,0,*6D
1547769602.04,4897,0.0,0.0,-8.63,-10.53,-10.35,0,*6F
1547769603.25,4898,0.0,0.0,-8.63,-10.45,-10.27,0,*64
1547769604.44,4899,0.0,0.0,-8.63,-10.53,-10.23,0,*66
1547769605.68,4900,0.0,0.0,-8.61,-10.35,-10.09,0,*6D
1547769606.91,4901,0.0,0.0,-8.61,-10.27,-10.01,0,*67
1547769608.13,4902,0.0,0.0,-8.61,-10.09,-9.89,0,*50
1547769609.36,4903,0.0,0.0,-8.61,-10.01,-9.97,0,*56
1547769610.58,4904,0.0,0.0,-8.61,-9.89,-10.01,0,*5E
1547769611.8,4905,0.0,0.0,-8.61,-9.97,-9.97,0,*67
1547769613.03,4906,0.0,0.0,-8.61,-9.89,-9.83,0,*6E
1547769614.27,4907,0.0,0.0,-8.59,-9.83,-9.83,0,*6E
1547769615.48,4908,0.0,0.0,-8.61,-9.97,-9.97,0,*6A
1547769616.69,4909,0.0,0.0,-8.61,-9.89,-9.97,0,*64
1547769617.91,4910,0.0,0.0,-8.61,-9.97,-9.89,0,*6C
1547769619.12,4911,0.0,0.0,-8.59,-9.93,-9.83,0,*68
1547769620.35,4912,0.0,0.0,-8.61,-10.09,-10.01,0,*69
1547769621.58,4913,0.0,0.0,-8.61,-10.01,-10.01,0,*60
1547769622.77,4914,0.0,0.0,-8.59,-10.05,-9.97,0,*5F
1547769623.99,4915,0.0,0.0,-8.61,-10.23,-9.97,0,*51
1547769625.24,4916,0.0,0.0,-8.61,-10.09,-9.83,0,*5F
1547769626.48,4917,0.0,0.0,-8.61,-9.97,-9.83,0,*61
1547769627.69,4918,0.0,0.0,-8.59,-9.83,-9.71,0,*6D
1547769628.92,4919,0.0,0.0,-8.59,-9.83,-9.61,0,*6D
1547769630.13,4920,0.0,0.0,-8.59,-9.71,-9.57,0,*6F
1547769631.37,4921,0.0,0.0,-8.59,-9.61,-9.53,0,*6B
1547769632.63,4922,0.0,0.0,-8.61,-9.61,-9.57,0,*67
1547769633.89,4923,0.0,0.0,-8.61,-9.61,-9.57,0,*66
1547769635.12,4924,0.0,0.0,-8.59,-9.57,-9.53,0,*6B
1547769636.36,4925,0.0,0.0,-8.59,-9.57,-9.53,0,*6A
1547769637.6,4926,0.0,0.0,-8.59,-9.45,-9.45,0,*6D
1547769638.83,4927,0.0,0.0,-8.59,-9.45,-9.45,0,*6C
1547769640.07,4928,0.0,0.0,-8.59,-9.53,-9.45,0,*64
1547769641.31,4929,0.0,0.0,-8.59,-9.53,-9.45,0,*65
1547769642.54,4930,0.0,0.0,-8.59,-9.57,-9.53,0,*6E
1547769643.8,4931,0.0,0.0,-8.61,-9.61,-9.61,0,*60
1547769645.04,4932,0.0,0.0,-8.59,-9.57,-9.53,0,*6C
1547769646.28,4933,0.0,0.0,-8.59,-9.45,-9.53,0,*6E
1547769647.51,4934,0.0,0.0,-8.59,-9.53,-9.45,0,*69
1547769648.78,4935,0.0,0.0,-8.61,-9.49,-9.49,0,*64
1547769650.02,4936,0.0,0.0,-8.59,-9.53,-9.53,0,*6C
1547769651.25,4937,0.0,0.0,-8.59,-9.53,-9.45,0,*6A
1547769652.49,4938,0.0,0.0,-8.59,-9.45,-9.45,0,*62
1547769653.73,4939,0.0,0.0,-8.59,-9.45,-9.53,0,*64
1547769654.97,4940,0.0,0.0,-8.55,-9.53,-9.53,0,*61
1547769656.24,4941,0.0,0.0,-8.61,-9.49,-9.49,0,*67
1547769657.48,4942,0.0,0.0,-8.59,-9.53,-9.45,0,*68
1547769658.72,4943,0.0,0.0,-8.59,-9.45,-9.53,0,*69
1547769659.96,4944,0.0,0.0,-8.59,-9.45,-9.45,0,*69
1547769661.2,4945,0.0,0.0,-8.59,-9.45,-9.53,0,*6F
1547769662.44,4946,0.0,0.0,-8.59,-9.45,-9.53,0,*6C
1547769663.68,4947,0.0,0.0,-8.59,-9.53,-9.53,0,*6A
1547769664.91,4948,0.0,0.0,-8.59,-9.53,-9.53,0,*65
1547769666.15,4949,0.0,0.0,-8.59,-9.53,-9.53,0,*64
1547769667.39,4950,0.0,0.0,-8.55,-9.53,-9.53,0,*60
1547769668.63,4951,0.0,0.0,-8.55,-9.53,-9.53,0,*61
1547769669.87,4952,0.0,0.0,-8.55,-9.53,-9.53,0,*62
1547769671.09,4953,0.0,0.0,-8.55,-9.67,-9.53,0,*64
1547769672.32,4954,0.0,0.0,-8.55,-9.57,-9.57,0,*64
1547769673.53,4955,0.0,0.0,-8.55,-9.67,-9.57,0,*66
1547769674.76,4956,0.0,0.0,-8.59,-9.57,-9.45,0,*69
1547769675.99,4957,0.0,0.0,-8.59,-9.53,-9.57,0,*6F
1547769677.17,4958,0.0,0.0,-8.59,-9.67,-9.67,0,*64
1547769678.41,4959,0.0,0.0,-8.59,-9.57,-9.53,0,*61
1547769679.65,4960,0.0,0.0,-8.59,-9.45,-9.53,0,*68
1547769680.88,4961,0.0,0.0,-8.59,-9.57,-9.53,0,*6A
1547769682.11,4962,0.0,0.0,-8.59,-9.57,-9.57,0,*6D
1547769683.34,4963,0.0,0.0,-8.59,-9.53,-9.53,0,*6C
1547769684.58,4964,0.0,0.0,-8.59,-9.45,-9.57,0,*68
1547769685.81,4965,0.0,0.0,-8.59,-9.53,-9.53,0,*6A
1547769687.05,4966,0.0,0.0,-8.59,-9.57,-9.53,0,*6D
1547769688.28,4967,0.0,0.0,-8.59,-9.53,-9.53,0,*68
1547769689.52,4968,0.0,0.0,-8.59,-9.53,-9.53,0,*67
1547769690.76,4969,0.0,0.0,-8.59,-9.45,-9.53,0,*61
1547769692.01,4970,0.0,0.0,-8.55,-9.45,-9.53,0,*65
1547769693.25,4971,0.0,0.0,-8.55,-9.53,-9.53,0,*63
1547769694.49,4972,0.0,0.0,-8.55,-9.45,-9.53,0,*67
1547769695.73,4973,0.0,0.0,-8.55,-9.45,-9.53,0,*66
1547769696.97,4974,0.0,0.0,-8.55,-9.53,-9.57,0,*62
1547769698.21,4975,0.0,0.0,-8.55,-9.53,-9.53,0,*67
1547769699.48,4976,0.0,0.0,-8.51,-9.41,-9.45,0,*64
1547769700.72,4977,0.0,0.0,-8.55,-9.45,-9.45,0,*65
1547769701.97,4978,0.0,0.0,-8.55,-9.45,-9.53,0,*6D
1547769703.21,4979,0.0,0.0,-8.55,-9.45,-9.45,0,*6B
1547769704.46,4980,0.0,0.0,-8.55,-9.45,-9.53,0,*6A
1547769705.7,4981,0.0,0.0,-8.55,-9.45,-9.45,0,*6C
1547769706.97,4982,0.0,0.0,-8.51,-9.41,-9.41,0,*6B
1547769708.21,4983,0.0,0.0,-8.55,-9.45,-9.53,0,*69
1547769709.49,4984,0.0,0.0,-8.51,-9.41,-9.41,0,*6D
1547769710.76,4985,0.0,0.0,-8.51,-9.41,-9.49,0,*64
1547769712.0,4986,0.0,0.0,-8.55,-9.45,-9.41,0,*6F
1547769713.24,4987,0.0,0.0,-8.55,-9.45,-9.37,0,*6F
1547769714.52,4988,0.0,0.0,-8.51,-9.41,-9.37,0,*60
1547769715.79,4989,0.0,0.0,-8.51,-9.41,-9.41,0,*60
1547769717.03,4990,0.0,0.0,-8.55,-9.53,-9.45,0,*6B
1547769718.27,4991,0.0,0.0,-8.55,-9.45,-9.45,0,*6D
1547769719.54,4992,0.0,0.0,-8.51,-9.49,-9.49,0,*6A
1547769720.81,4993,0.0,0.0,-8.51,-9.41,-9.41,0,*6B
1547769722.08,4994,0.0,0.0,-8.51,-9.49,-9.41,0,*64
1547769723.32,4995,0.0,0.0,-8.55,-9.45,-9.45,0,*69
1547769724.57,4996,0.0,0.0,-8.55,-9.45,-9.53,0,*6D
1547769725.8,4997,0.0,0.0,-8.55,-9.53,-9.53,0,*6B
1547769727.07,4998,0.0,0.0,-8.51,-9.53,-9.61,0,*61
1547769728.31,4999,0.0,0.0,-8.51,-9.61,-9.75,0,*64
1547769729.53,5000,0.0,0.0,-8.55,-9.67,-9.83,0,*67
1547769730.74,5001,0.0,0.0,-8.55,-9.71,-9.83,0,*61
1547769731.94,5002,0.0,0.0,-8.55,-9.79,-9.93,0,*6B
1547769733.16,5003,0.0,0.0,-8.51,-9.93,-10.01,0,*59
1547769734.4,5004,0.0,0.0,-8.51,-10.01,-10.19,0,*64
1547769735.64,5005,0.0,0.0,-8.51,-10.15,-10.35,0,*6E
1547769736.88,5006,0.0,0.0,-8.51,-10.15,-10.35,0,*6D
1547769738.11,5007,0.0,0.0,-8.55,-10.19,-10.41,0,*67
1547769739.35,5008,0.0,0.0,-8.51,-10.19,-10.35,0,*6F
1547769740.56,5009,0.0,0.0,-8.55,-10.23,-10.53,0,*63
1547769741.79,5010,0.0,0.0,-8.55,-10.23,-10.41,0,*68
1547769743.0,5011,0.0,0.0,-8.55,-10.23,-10.35,0,*6A
1547769744.2,5012,0.0,0.0,-8.55,-10.23,-10.31,0,*6D
1547769745.4,5013,0.0,0.0,-8.55,-10.09,-10.31,0,*64
1547769746.59,5014,0.0,0.0,-8.55,-10.09,-10.23,0,*60
1547769747.79,5015,0.0,0.0,-8.55,-10.09,-10.31,0,*62
1547769749.03,5016,0.0,0.0,-8.51,-10.01,-10.19,0,*67
1547769750.26,5017,0.0,0.0,-8.51,-10.01,-10.27,0,*6B
1547769751.45,5018,0.0,0.0,-8.55,-9.97,-10.31,0,*50
1547769752.67,5019,0.0,0.0,-8.55,-9.83,-10.31,0,*54
1547769753.86,5020,0.0,0.0,-8.55,-9.93,-10.23,0,*5C
1547769755.06,5021,0.0,0.0,-8.55,-9.93,-10.23,0,*5D
1547769756.25,5022,0.0,0.0,-8.55,-9.93,-10.23,0,*5E
1547769757.44,5023,0.0,0.0,-8.55,-10.05,-10.23,0,*68
1547769758.64,5024,0.0,0.0,-8.55,-10.05,-10.23,0,*6F
1547769759.83,5025,0.0,0.0,-8.59,-10.05,-10.19,0,*6B
1547769761.03,5026,0.0,0.0,-8.55,-10.05,-10.19,0,*64
1547769762.23,5027,0.0,0.0,-8.55,-9.97,-10.19,0,*56
1547769763.45,5028,0.0,0.0,-8.51,-9.93,-10.09,0,*58
1547769764.65,5029,0.0,0.0,-8.55,-9.97,-10.19,0,*58
1547769765.85,5030,0.0,0.0,-8.55,-10.05,-10.31,0,*69
1547769767.07,5031,0.0,0.0,-8.55,-10.09,-10.41,0,*63
1547769768.28,5032,0.0,0.0,-8.55,-10.09,-10.35,0,*63
1547769769.47,5033,0.0,0.0,-8.55,-9.97,-10.35,0,*5D
1547769770.67,5034,0.0,0.0,-8.55,-10.09,-10.35,0,*65
1547769771.88,5035,0.0,0.0,-8.55,-10.19,-10.53,0,*65
1547769773.14,5036,0.0,0.0,-8.51,-10.31,-10.71,0,*68
1547769774.37,5037,0.0,0.0,-8.55,-10.67,-11.19,0,*61
1547769775.59,5038,0.0,0.0,-8.55,-11.23,-11.51,0,*63
1547769776.84,5039,0.0,0.0,-8.55,-11.37,-11.33,0,*63
1547769778.1,5040,0.0,0.0,-8.55,-11.07,-11.07,0,*69
1547769779.35,5041,0.0,0.0,-8.55,-10.75,-10.79,0,*64
1547769780.61,5042,0.0,0.0,-8.55,-10.75,-10.75,0,*6B
1547769781.83,5043,0.0,0.0,-8.55,-10.53,-10.63,0,*69
1547769783.06,5044,0.0,0.0,-8.55,-10.49,-10.67,0,*61
1547769784.29,5045,0.0,0.0,-8.55,-10.63,-10.89,0,*68
1547769785.52,5046,0.0,0.0,-8.55,-10.93,-11.33,0,*64
1547769786.74,5047,0.0,0.0,-8.55,-11.33,-11.45,0,*6F
1547769787.97,5048,0.0,0.0,-8.55,-11.51,-11.23,0,*64
1547769789.16,5049,0.0,0.0,-8.55,-11.19,-10.89,0,*68
1547769790.39,5050,0.0,0.0,-8.55,-11.19,-10.75,0,*63
1547769791.62,5051,0.0,0.0,-8.55,-11.15,-10.63,0,*69
1547769792.85,5052,0.0,0.0,-8.55,-10.67,-10.49,0,*66
1547769794.08,5053,0.0,0.0,-8.59,-10.63,-10.53,0,*64
1547769795.31,5054,0.0,0.0,-8.59,-10.63,-10.49,0,*68
1547769796.51,5055,0.0,0.0,-8.59,-10.49,-10.35,0,*6A
1547769797.72,5056,0.0,0.0,-8.59,-10.35,-10.31,0,*66
1547769798.96,5057,0.0,0.0,-8.61,-10.45,-10.27,0,*6C
1547769800.19,5058,0.0,0.0,-8.59,-10.67,-10.53,0,*6B
1547769801.45,5059,0.0,0.0,-8.59,-10.67,-10.67,0,*6D
1547769802.7,5060,0.0,0.0,-8.59,-10.79,-10.67,0,*68
1547769803.93,5061,0.0,0.0,-8.59,-10.75,-10.53,0,*62
1547769805.12,5062,0.0,0.0,-8.59,-10.53,-10.49,0,*6E
1547769806.35,5063,0.0,0.0,-8.59,-10.63,-10.49,0,*6C
1547769807.61,5064,0.0,0.0,-8.55,-10.67,-10.41,0,*6B
1547769808.88,5065,0.0,0.0,-8.59,-10.67,-10.41,0,*66
1547769810.11,5066,0.0,0.0,-8.59,-10.67,-10.49,0,*6D
1547769811.34,5067,0.0,0.0,-8.55,-10.79,-10.49,0,*6F
1547769812.57,5068,0.0,0.0,-8.59,-10.67,-10.35,0,*68
1547769813.77,5069,0.0,0.0,-8.55,-10.49,-10.23,0,*6E
1547769814.99,5070,0.0,0.0,-8.55,-10.35,-10.19,0,*64
1547769816.19,5071,0.0,0.0,-8.55,-10.23,-10.05,0,*6F
1547769817.38,5072,0.0,0.0,-8.55,-10.09,-10.05,0,*64
1547769818.57,5073,0.0,0.0,-8.55,-10.09,-9.97,0,*56
1547769819.76,5074,0.0,0.0,-8.59,-10.09,-9.93,0,*59
1547769820.98,5075,0.0,0.0,-8.61,-10.01,-9.93,0,*5B
1547769822.19,5076,0.0,0.0,-8.59,-9.97,-9.83,0,*65
1547769823.4,5077,0.0,0.0,-8.61,-9.97,-9.89,0,*65
1547769824.59,5078,0.0,0.0,-8.59,-9.79,-9.71,0,*66
1547769825.79,5079,0.0,0.0,-8.59,-9.79,-9.93,0,*6B
1547769826.97,5080,0.0,0.0,-8.59,-9.79,-9.97,0,*69
1547769828.19,5081,0.0,0.0,-8.59,-9.83,-10.23,0,*5A
1547769829.4,5082,0.0,0.0,-8.59,-10.09,-10.63,0,*67
1547769830.6,5083,0.0,0.0,-8.59,-10.23,-10.93,0,*61
1547769831.86,5084,0.0,0.0,-8.59,-10.63,-11.07,0,*6E
1547769833.09,5085,0.0,0.0,-8.61,-10.85,-11.01,0,*6A
1547769834.34,5086,0.0,0.0,-8.59,-10.79,-10.75,0,*63
1547769835.54,5087,0.0,0.0,-8.59,-10.49,-10.35,0,*65
1547769836.75,5088,0.0,0.0,-8.59,-10.23,-10.31,0,*62
1547769837.95,5089,0.0,0.0,-8.59,-10.19,-10.23,0,*69
1547769839.14,5090,0.0,0.0,-8.59,-10.09,-10.27,0,*64
1547769840.34,5091,0.0,0.0,-8.59,-10.05,-10.31,0,*6E
1547769841.56,5092,0.0,0.0,-8.59,-10.09,-10.41,0,*66
1547769842.77,5093,0.0,0.0,-8.59,-10.19,-10.49,0,*6E
1547769843.99,5094,0.0,0.0,-8.59,-10.23,-10.63,0,*68
1547769845.22,5095,0.0,0.0,-8.59,-10.23,-10.79,0,*62
1547769846.41,5096,0.0,0.0,-8.59,-10.53,-11.01,0,*68
1547769847.66,5097,0.0,0.0,-8.59,-10.71,-11.33,0,*68
1547769848.88,5098,0.0,0.0,-8.59,-10.93,-11.59,0,*67
1547769850.13,5099,0.0,0.0,-8.59,-11.07,-11.89,0,*67
1547769851.36,5100,0.0,0.0,-8.59,-11.19,-11.89,0,*69
1547769852.58,5101,0.0,0.0,-8.59,-11.15,-11.73,0,*61
1547769853.83,5102,0.0,0.0,-8.55,-11.07,-11.97,0,*67
1547769855.03,5103,0.0,0.0,-8.55,-11.19,-12.43,0,*63
1547769856.28,5104,0.0,0.0,-8.55,-11.33,-11.97,0,*66
1547769857.51,5105,0.0,0.0,-8.55,-11.33,-12.03,0,*69
1547769858.76,5106,0.0,0.0,-8.55,-11.51,-12.61,0,*6A
1547769860.02,5107,0.0,0.0,-8.55,-11.85,-12.71,0,*63
1547769861.24,5108,0.0,0.0,-8.59,-11.77,-12.47,0,*68
1547769862.5,5109,0.0,0.0,-8.61,-11.63,-12.25,0,*63
1547769863.71,5110,0.0,0.0,-8.59,-11.45,-12.21,0,*60
1547769864.93,5111,0.0,0.0,-8.59,-11.51,-12.47,0,*64
1547769866.19,5112,0.0,0.0,-8.61,-11.67,-12.89,0,*6B
1547769867.44,5113,0.0,0.0,-8.59,-11.63,-12.57,0,*66
1547769868.69,5114,0.0,0.0,-8.59,-11.51,-12.71,0,*64
1547769869.91,5115,0.0,0.0,-8.59,-11.73,-12.97,0,*6D
1547769871.14,5116,0.0,0.0,-8.59,-11.85,-13.19,0,*60
1547769872.43,5117,0.0,0.0,-8.61,-11.93,-13.33,0,*65
1547769873.69,5118,0.0,0.0,-8.61,-12.03,-13.33,0,*60
1547769874.96,5119,0.0,0.0,-8.61,-11.93,-13.19,0,*63
1547769876.2,5120,0.0,0.0,-8.59,-11.89,-13.29,0,*6A
1547769877.4,5121,0.0,0.0,-8.59,-12.03,-13.23,0,*60
1547769878.69,5122,0.0,0.0,-8.61,-11.93,-13.33,0,*63
1547769879.94,5123,0.0,0.0,-8.61,-12.03,-13.37,0,*6C
1547769881.23,5124,0.0,0.0,-8.61,-11.93,-13.37,0,*61
1547769882.48,5125,0.0,0.0,-8.61,-12.03,-13.33,0,*6E
1547769883.74,5126,0.0,0.0,-8.61,-12.03,-13.33,0,*6D
1547769884.99,5127,0.0,0.0,-8.61,-12.03,-13.37,0,*68
1547769886.18,5128,0.0,0.0,-8.59,-12.03,-13.47,0,*6B
1547769887.44,5129,0.0,0.0,-8.61,-12.07,-13.51,0,*62
1547769888.69,5130,0.0,0.0,-8.61,-12.07,-13.47,0,*6D
1547769889.88,5131,0.0,0.0,-8.59,-12.03,-13.43,0,*67
1547769891.1,5132,0.0,0.0,-8.63,-12.07,-13.47,0,*6D
1547769892.29,5133,0.0,0.0,-8.63,-12.03,-13.47,0,*68
1547769893.52,5134,0.0,0.0,-8.63,-12.03,-13.37,0,*68
1547769894.77,5135,0.0,0.0,-8.63,-12.15,-13.33,0,*6A
1547769895.98,5136,0.0,0.0,-8.63,-12.03,-13.19,0,*66
1547769897.23,5137,0.0,0.0,-8.61,-11.93,-13.07,0,*60
1547769898.49,5138,0.0,0.0,-8.61,-11.77,-12.93,0,*69
1547769899.77,5139,0.0,0.0,-8.61,-11.81,-13.01,0,*6B
1547769901.02,5140,0.0,0.0,-8.61,-11.89,-13.07,0,*6B
1547769902.27,5141,0.0,0.0,-8.61,-11.81,-12.93,0,*6E
1547769903.56,5142,0.0,0.0,-8.61,-11.67,-12.75,0,*6D
1547769904.84,5143,0.0,0.0,-8.61,-11.63,-12.65,0,*69
1547769906.1,5144,0.0,0.0,-8.61,-11.55,-12.39,0,*62
1547769907.34,5145,0.0,0.0,-8.63,-11.41,-12.75,0,*6C
1547769908.59,5146,0.0,0.0,-8.63,-11.55,-13.33,0,*69
1547769909.85,5147,0.0,0.0,-8.61,-11.89,-13.51,0,*6F
1547769911.1,5148,0.0,0.0,-8.61,-12.07,-13.51,0,*65
1547769912.36,5149,0.0,0.0,-8.59,-12.11,-13.61,0,*6B
1547769913.61,5150,0.0,0.0,-8.61,-12.35,-13.65,0,*6A
1547769914.83,5151,0.0,0.0,-8.63,-12.35,-13.73,0,*6E
1547769916.04,5152,0.0,0.0,-8.63,-12.21,-13.73,0,*68
1547769917.27,5153,0.0,0.0,-8.61,-12.25,-13.73,0,*6F
1547769918.5,5154,0.0,0.0,-8.61,-12.39,-13.73,0,*65
1547769919.69,5155,0.0,0.0,-8.63,-12.39,-13.73,0,*66
1547769920.94,5156,0.0,0.0,-8.63,-12.35,-13.79,0,*63
1547769922.2,5157,0.0,0.0,-8.61,-12.35,-13.73,0,*6A
1547769923.47,5158,0.0,0.0,-8.61,-12.35,-13.79,0,*6F
1547769924.67,5159,0.0,0.0,-8.63,-12.47,-13.73,0,*63
1547769925.89,5160,0.0,0.0,-8.61,-12.39,-13.73,0,*62
1547769927.13,5161,0.0,0.0,-8.65,-12.29,-13.55,0,*62
1547769928.33,5162,0.0,0.0,-8.63,-12.25,-13.51,0,*6F
1547769929.54,5163,0.0,0.0,-8.63,-12.25,-13.23,0,*6B
1547769930.73,5164,0.0,0.0,-8.63,-12.03,-13.07,0,*6E
1547769931.99,5165,0.0,0.0,-8.63,-11.93,-13.37,0,*66
1547769933.24,5166,0.0,0.0,-8.63,-12.15,-13.61,0,*6B
1547769934.49,5167,0.0,0.0,-8.65,-12.43,-13.83,0,*63
1547769935.74,5168,0.0,0.0,-8.63,-12.53,-13.87,0,*6F
1547769936.94,5169,0.0,0.0,-8.63,-12.47,-13.93,0,*6E
1547769938.15,5170,0.0,0.0,-8.63,-12.61,-13.93,0,*62
1547769939.39,5171,0.0,0.0,-8.63,-12.61,-13.79,0,*67
1547769940.67,5172,0.0,0.0,-8.65,-12.65,-13.83,0,*63
1547769941.89,5173,0.0,0.0,-8.63,-12.65,-13.93,0,*65
1547769943.13,5174,0.0,0.0,-8.63,-12.61,-13.87,0,*63
1547769944.41,5175,0.0,0.0,-8.65,-12.65,-13.83,0,*64
1547769945.66,5176,0.0,0.0,-8.61,-12.53,-13.73,0,*69
1547769946.92,5177,0.0,0.0,-8.65,-12.53,-13.65,0,*6B
1547769948.17,5178,0.0,0.0,-8.65,-12.53,-13.69,0,*68
1547769949.42,5179,0.0,0.0,-8.65,-12.57,-13.65,0,*61
1547769950.67,5180,0.0,0.0,-8.63,-12.35,-13.37,0,*62
1547769951.9,5181,0.0,0.0,-8.65,-12.21,-13.23,0,*65
1547769953.13,5182,0.0,0.0,-8.63,-12.07,-13.23,0,*64
1547769954.41,5183,0.0,0.0,-8.65,-12.07,-13.29,0,*69
1547769955.67,5184,0.0,0.0,-8.65,-12.11,-13.23,0,*63
1547769956.92,5185,0.0,0.0,-8.65,-12.11,-13.11,0,*63
1547769958.18,5186,0.0,0.0,-8.65,-11.97,-12.97,0,*62
1547769959.38,5187,0.0,0.0,-8.63,-12.03,-13.23,0,*65
1547769960.63,5188,0.0,0.0,-8.63,-12.15,-13.33,0,*6C
1547769961.83,5189,0.0,0.0,-8.63,-12.25,-13.47,0,*6D
1547769963.08,5190,0.0,0.0,-8.63,-12.15,-13.37,0,*61
1547769964.33,5191,0.0,0.0,-8.63,-12.11,-13.33,0,*60
1547769965.61,5192,0.0,0.0,-8.65,-12.11,-13.29,0,*6E
1547769966.87,5193,0.0,0.0,-8.65,-11.93,-12.97,0,*62
1547769968.12,5194,0.0,0.0,-8.63,-11.67,-12.61,0,*61
1547769969.38,5195,0.0,0.0,-8.65,-11.59,-12.43,0,*6B
1547769970.62,5196,0.0,0.0,-8.65,-11.45,-12.39,0,*68
1547769971.9,5197,0.0,0.0,-8.65,-11.33,-12.11,0,*62
1547769973.15,5198,0.0,0.0,-8.65,-11.11,-11.73,0,*6A
1547769974.4,5199,0.0,0.0,-8.65,-10.75,-11.45,0,*6D
1547769975.6,5200,0.0,0.0,-8.63,-10.53,-11.23,0,*6C
1547769976.83,5201,0.0,0.0,-8.65,-10.31,-11.11,0,*6E
1547769978.03,5202,0.0,0.0,-8.63,-10.23,-10.93,0,*63
1547769979.24,5203,0.0,0.0,-8.65,-10.05,-10.85,0,*67
1547769980.49,5204,0.0,0.0,-8.65,-9.93,-10.63,0,*5F
1547769981.68,5205,0.0,0.0,-8.63,-9.97,-10.57,0,*5B
1547769982.89,5206,0.0,0.0,-8.63,-10.15,-10.89,0,*69
1547769984.14,5207,0.0,0.0,-8.65,-10.31,-11.33,0,*68
1547769985.4,5208,0.0,0.0,-8.63,-10.67,-11.51,0,*66
1547769986.62,5209,0.0,0.0,-8.63,-10.85,-11.89,0,*6E
1547769987.85,5210,0.0,0.0,-8.63,-10.85,-11.89,0,*66
1547769989.08,5211,0.0,0.0,-8.63,-10.97,-12.07,0,*61
1547769990.31,5212,0.0,0.0,-8.63,-11.11,-12.07,0,*6D
1547769991.55,5213,0.0,0.0,-8.61,-11.11,-12.21,0,*6A
1547769992.77,5214,0.0,0.0,-8.63,-11.19,-12.35,0,*62
1547769994.0,5215,0.0,0.0,-8.63,-11.19,-12.35,0,*63
1547769995.2,5216,0.0,0.0,-8.63,-11.19,-12.39,0,*6C
1547769996.41,5217,0.0,0.0,-8.63,-11.23,-12.47,0,*6D
1547769997.67,5218,0.0,0.0,-8.63,-11.29,-12.75,0,*69
1547769998.9,5219,0.0,0.0,-8.63,-11.41,-12.79,0,*6A
1547770000.18,5220,0.0,0.0,-8.61,-11.67,-13.01,0,*68
1547770001.41,5221,0.0,0.0,-8.63,-11.89,-12.93,0,*61
1547770002.63,5222,0.0,0.0,-8.59,-11.77,-12.89,0,*61
1547770003.86,5223,0.0,0.0,-8.63,-11.89,-12.93,0,*63
1547770005.12,5224,0.0,0.0,-8.61,-11.89,-12.93,0,*66
1547770006.37,5225,0.0,0.0,-8.63,-11.81,-12.75,0,*65
1547770007.61,5226,0.0,0.0,-8.63,-11.93,-12.93,0,*6D
1547770008.87,5227,0.0,0.0,-8.63,-11.93,-12.79,0,*68
1547770010.12,5228,0.0,0.0,-8.63,-11.93,-13.01,0,*69
1547770011.38,5229,0.0,0.0,-8.63,-11.93,-13.01,0,*68
1547770012.61,5230,0.0,0.0,-8.63,-11.93,-12.93,0,*6A
1547770013.84,5231,0.0,0.0,-8.63,-11.81,-12.89,0,*63
1547770015.06,5232,0.0,0.0,-8.63,-11.77,-12.89,0,*69
1547770016.32,5233,0.0,0.0,-8.65,-11.97,-13.23,0,*61
1547770017.55,5234,0.0,0.0,-8.63,-12.15,-13.19,0,*60
1547770018.79,5235,0.0,0.0,-8.63,-12.07,-13.19,0,*62
1547770020.07,5236,0.0,0.0,-8.65,-12.11,-13.29,0,*63
1547770021.29,5237,0.0,0.0,-8.63,-12.15,-13.23,0,*6A
1547770022.52,5238,0.0,0.0,-8.63,-12.15,-13.23,0,*65
1547770023.76,5239,0.0,0.0,-8.63,-12.07,-13.19,0,*6E
1547770024.98,5240,0.0,0.0,-8.63,-12.11,-13.07,0,*68
1547770026.22,5241,0.0,0.0,-8.63,-11.93,-12.93,0,*6C
1547770027.45,5242,0.0,0.0,-8.63,-11.93,-12.93,0,*6F
1547770028.65,5243,0.0,0.0,-8.63,-12.03,-12.93,0,*64
1547770029.91,5244,0.0,0.0,-8.65,-11.97,-12.97,0,*6F
1547770031.17,5245,0.0,0.0,-8.65,-11.93,-12.93,0,*6E
1547770032.4,5246,0.0,0.0,-8.63,-11.89,-12.89,0,*6B
1547770033.66,5247,0.0,0.0,-8.63,-11.77,-12.75,0,*68
1547770034.94,5248,0.0,0.0,-8.65,-11.73,-12.79,0,*69
1547770036.19,5249,0.0,0.0,-8.63,-11.63,-12.65,0,*62
1547770037.44,5250,0.0,0.0,-8.63,-11.55,-12.65,0,*6F
1547770038.69,5251,0.0,0.0,-8.63,-11.55,-12.61,0,*6A
1547770039.97,5252,0.0,0.0,-8.65,-11.55,-12.57,0,*6A
1547770041.22,5253,0.0,0.0,-8.63,-11.37,-12.53,0,*6D
1547770042.48,5254,0.0,0.0,-8.65,-11.33,-12.43,0,*69
1547770043.74,5255,0.0,0.0,-8.65,-11.29,-12.43,0,*63
1547770044.97,5256,0.0,0.0,-8.63,-11.23,-12.35,0,*6D
1547770046.2,5257,0.0,0.0,-8.63,-11.23,-12.53,0,*6C
1547770047.43,5258,0.0,0.0,-8.63,-11.23,-12.61,0,*62
1547770048.69,5259,0.0,0.0,-8.65,-11.41,-12.71,0,*60
1547770049.95,5260,0.0,0.0,-8.65,-11.41,-12.79,0,*62
1547770051.16,5261,0.0,0.0,-8.63,-11.41,-12.93,0,*61
1547770052.37,5262,0.0,0.0,-8.63,-11.41,-12.89,0,*69
1547770053.59,5263,0.0,0.0,-8.63,-11.51,-12.93,0,*62
1547770054.82,5264,0.0,0.0,-8.63,-11.55,-13.07,0,*6D
1547770056.05,5265,0.0,0.0,-8.63,-11.63,-13.07,0,*69
1547770057.27,5266,0.0,0.0,-8.63,-11.67,-13.07,0,*6E
1547770058.49,5267,0.0,0.0,-8.63,-11.77,-13.07,0,*6E
1547770059.72,5268,0.0,0.0,-8.63,-11.89,-13.07,0,*60
1547770060.97,5269,0.0,0.0,-8.63,-11.89,-13.01,0,*67
1547770062.22,5270,0.0,0.0,-8.61,-11.89,-12.93,0,*67
1547770063.49,5271,0.0,0.0,-8.63,-11.93,-12.79,0,*6B
1547770064.75,5272,0.0,0.0,-8.65,-11.93,-12.39,0,*6A
1547770066.0,5273,0.0,0.0,-8.63,-11.77,-11.67,0,*6F
1547770067.26,5274,0.0,0.0,-8.65,-11.45,-11.33,0,*6E
1547770068.45,5275,0.0,0.0,-8.63,-11.19,-11.11,0,*60
1547770069.66,5276,0.0,0.0,-8.63,-10.93,-10.93,0,*6B
1547770070.89,5277,0.0,0.0,-8.63,-10.67,-10.93,0,*61
1547770072.13,5278,0.0,0.0,-8.63,-10.67,-10.93,0,*6E
1547770073.35,5279,0.0,0.0,-8.63,-10.45,-10.71,0,*63
1547770074.56,5280,0.0,0.0,-8.63,-10.35,-10.53,0,*62
1547770075.77,5281,0.0,0.0,-8.63,-10.27,-10.35,0,*60
1547770077.0,5282,0.0,0.0,-8.63,-10.27,-10.41,0,*60
1547770078.21,5283,0.0,0.0,-8.63,-10.23,-10.35,0,*66
1547770079.45,5284,0.0,0.0,-8.61,-10.23,-10.27,0,*60
1547770080.66,5285,0.0,0.0,-8.63,-10.15,-10.27,0,*66
1547770081.87,5286,0.0,0.0,-8.63,-10.15,-10.27,0,*65
1547770083.08,5287,0.0,0.0,-8.63,-10.09,-10.35,0,*6A
1547770084.31,5288,0.0,0.0,-8.61,-10.23,-10.57,0,*6B
1547770085.57,5289,0.0,0.0,-8.61,-10.35,-10.71,0,*69
1547770086.8,5290,0.0,0.0,-8.61,-10.45,-10.93,0,*6A
1547770088.0,5291,0.0,0.0,-8.63,-10.53,-10.93,0,*6E
1547770089.25,5292,0.0,0.0,-8.63,-10.71,-11.37,0,*62
1547770090.48,5293,0.0,0.0,-8.63,-10.97,-11.81,0,*66
1547770091.71,5294,0.0,0.0,-8.63,-11.11,-11.93,0,*6D
1547770092.94,5295,0.0,0.0,-8.61,-11.11,-12.21,0,*64
1547770094.17,5296,0.0,0.0,-8.61,-11.19,-12.21,0,*6F
1547770095.41,5297,0.0,0.0,-8.61,-11.11,-12.03,0,*66
1547770096.67,5298,0.0,0.0,-8.61,-11.07,-12.03,0,*6E
1547770097.93,5299,0.0,0.0,-8.61,-10.97,-11.93,0,*6D
1547770099.19,5300,0.0,0.0,-8.61,-10.85,-11.93,0,*6F
1547770100.44,5301,0.0,0.0,-8.61,-10.93,-11.81,0,*6A
1547770101.73,5302,0.0,0.0,-8.61,-10.71,-11.63,0,*69
1547770102.96,5303,0.0,0.0,-8.61,-10.53,-11.41,0,*68
1547770104.22,5304,0.0,0.0,-8.61,-10.45,-11.29,0,*66
1547770105.47,5305,0.0,0.0,-8.61,-10.53,-11.29,0,*60
1547770106.73,5306,0.0,0.0,-8.61,-10.41,-11.11,0,*6B
1547770107.99,5307,0.0,0.0,-8.61,-10.27,-11.07,0,*6D
1547770109.25,5308,0.0,0.0,-8.61,-10.27,-11.07,0,*62
1547770110.44,5309,0.0,0.0,-8.59,-10.23,-10.93,0,*60
1547770111.7,5310,0.0,0.0,-8.61,-10.27,-11.07,0,*6B
1547770112.93,5311,0.0,0.0,-8.61,-10.27,-11.11,0,*6D
1547770114.17,5312,0.0,0.0,-8.61,-10.35,-11.19,0,*65
1547770115.43,5313,0.0,0.0,-8.61,-10.41,-11.23,0,*6E
1547770116.66,5314,0.0,0.0,-8.61,-10.35,-11.41,0,*6E
1547770117.92,5315,0.0,0.0,-8.61,-10.53,-11.67,0,*6B
1547770119.14,5316,0.0,0.0,-8.59,-10.57,-11.67,0,*67
1547770120.4,5317,0.0,0.0,-8.61,-10.79,-12.03,0,*60
1547770121.66,5318,0.0,0.0,-8.61,-11.11,-12.53,0,*65
1547770122.89,5319,0.0,0.0,-8.61,-11.41,-12.89,0,*66
1547770124.12,5320,0.0,0.0,-8.59,-11.55,-12.89,0,*62
1547770125.38,5321,0.0,0.0,-8.61,-11.81,-12.93,0,*6A
1547770126.65,5322,0.0,0.0,-8.61,-11.89,-13.01,0,*6B
1547770127.88,5323,0.0,0.0,-8.59,-11.89,-12.97,0,*6F
1547770129.09,5324,0.0,0.0,-8.59,-12.03,-13.01,0,*67
1547770130.33,5325,0.0,0.0,-8.61,-12.03,-12.97,0,*63
1547770131.59,5326,0.0,0.0,-8.61,-11.93,-13.07,0,*62
1547770132.81,5327,0.0,0.0,-8.61,-12.03,-13.07,0,*69
1547770134.01,5328,0.0,0.0,-8.59,-12.03,-13.07,0,*6D
1547770135.23,5329,0.0,0.0,-8.61,-12.03,-13.11,0,*60
1547770136.46,5330,0.0,0.0,-8.59,-11.89,-12.97,0,*6D
1547770137.74,5331,0.0,0.0,-8.61,-12.07,-13.01,0,*6C
1547770138.99,5332,0.0,0.0,-8.61,-12.03,-13.01,0,*6B
1547770140.24,5333,0.0,0.0,-8.61,-12.03,-13.01,0,*6A
1547770141.46,5334,0.0,0.0,-8.63,-12.03,-13.01,0,*6F
1547770142.69,5335,0.0,0.0,-8.63,-12.07,-12.93,0,*60
1547770143.89,5336,0.0,0.0,-8.63,-12.03,-12.89,0,*6C
1547770145.15,5337,0.0,0.0,-8.63,-11.93,-12.79,0,*68
1547770146.4,5338,0.0,0.0,-8.63,-11.81,-12.65,0,*69
1547770147.66,5339,0.0,0.0,-8.61,-11.89,-12.89,0,*60
1547770148.91,5340,0.0,0.0,-8.61,-11.81,-12.89,0,*66
1547770150.17,5341,0.0,0.0,-8.61,-11.89,-12.89,0,*6F
1547770151.41,5342,0.0,0.0,-8.63,-11.93,-12.89,0,*65
1547770152.67,5343,0.0,0.0,-8.61,-11.93,-12.89,0,*66
1547770153.91,5344,0.0,0.0,-8.63,-11.93,-12.89,0,*63
1547770155.11,5345,0.0,0.0,-8.63,-12.03,-12.89,0,*68
1547770156.31,5346,0.0,0.0,-8.63,-12.03,-12.89,0,*6B
1547770157.55,5347,0.0,0.0,-8.63,-11.93,-12.89,0,*60
1547770158.78,5348,0.0,0.0,-8.63,-11.93,-12.89,0,*6F
1547770160.02,5349,0.0,0.0,-8.63,-11.93,-12.89,0,*6E
1547770161.22,5350,0.0,0.0,-8.63,-12.03,-12.89,0,*6C
1547770162.48,5351,0.0,0.0,-8.61,-11.93,-12.93,0,*6E
1547770163.75,5352,0.0,0.0,-8.61,-11.93,-12.93,0,*6D